Location: Veytaux
(46.4185°N, 6.9320°E)
Time: 08:18:27
(UTC+00:00)

USA 229 DEB - Pass Details

Date: 27 May 2022
Orbit: 934 x 1278 km, 63.4° (Epoch: 24 May)

Event Time Altitude Azimuth Distance (km) Brightness Sun altitude
Rises 00:16:33 0° 319° (NW) 3,979 7.2 -21.5°
Reaches altitude 10° 00:19:11 10° 316° (NW) 3,063 6.5 -21.4°
Maximum altitude 00:26:29 64° 238° (WSW) 1,338 3.9 -21.1°
Enters shadow 00:30:40 29° 167° (SSE) 2,104 4.7 -20.9°
